JAL798 RJGG-PHNL

Flight info

Callsign JAL798
Flight time N/A
Altitude 37000
Route BOGON Y23 ARTIC Y71 XAC Y233 UTIBO Y803 POROT Y809 AVBET OTR11 LEPKI 37N160E 36N170E/N0479F390 33N180E 29N170W DCT DANNO BOOKE8
Aircraft B789/H-SDE1E2E3FGHIJ2J3J4J5M1RWXY/LB1D1

Departure

Time 2026-04-29 16:50
Airport Chubu Centrair International Airport (RJGG)

Arrival

Time N/A
Airport Daniel K. Inouye International Airport (PHNL)
Time Latitude Longitude Altitude Speed Heading
2026-04-29 16:27 34.85767 136.81168 34 ft 0 kts 348°
2026-04-29 16:41 34.85765 136.81168 34 ft 2 kts 348°
2026-04-29 16:42 34.85740 136.81176 32 ft 4 kts 340°
2026-04-29 16:42 34.85716 136.81189 31 ft 4 kts 328°
2026-04-29 16:42 34.85702 136.81201 32 ft 0 kts 321°
2026-04-29 16:44 34.85702 136.81200 32 ft 1 kts 320°
2026-04-29 16:45 34.85705 136.81192 32 ft 1 kts 294°
2026-04-29 16:45 34.85701 136.81174 33 ft 5 kts 242°
2026-04-29 16:45 34.85671 136.81085 34 ft 17 kts 256°
2026-04-29 16:45 34.85611 136.80947 33 ft 18 kts 213°
2026-04-29 16:46 34.85520 136.80868 33 ft 14 kts 184°
2026-04-29 16:46 34.85416 136.80884 33 ft 16 kts 169°
2026-04-29 16:46 34.85303 136.80912 33 ft 17 kts 169°
2026-04-29 16:46 34.85179 136.80942 32 ft 19 kts 169°
2026-04-29 16:47 34.85045 136.80972 33 ft 20 kts 170°
2026-04-29 16:47 34.84901 136.81008 33 ft 22 kts 167°
2026-04-29 16:47 34.84748 136.81047 33 ft 23 kts 169°
2026-04-29 16:47 34.84737 136.81049 33 ft 23 kts 169°
2026-04-29 16:48 34.84668 136.81065 33 ft 24 kts 169°
2026-04-29 16:48 34.84506 136.81103 33 ft 24 kts 169°
2026-04-29 16:48 34.84359 136.81127 33 ft 13 kts 203°
2026-04-29 16:48 34.84331 136.81048 31 ft 11 kts 259°
2026-04-29 16:49 34.84316 136.80948 28 ft 13 kts 265°
2026-04-29 16:49 34.84369 136.80891 28 ft 13 kts 345°
2026-04-29 16:49 34.84553 136.80845 29 ft 50 kts 348°
2026-04-29 16:49 34.85079 136.80717 32 ft 103 kts 348°
2026-04-29 16:50 34.85947 136.80511 29 ft 149 kts 349°
2026-04-29 16:50 34.87068 136.80246 271 ft 167 kts 347°
2026-04-29 16:50 34.88166 136.79937 976 ft 168 kts 337°
2026-04-29 16:50 34.89026 136.78853 1168 ft 196 kts 288°
2026-04-29 16:51 34.88899 136.77244 1948 ft 196 kts 255°
2026-04-29 16:51 34.88012 136.75843 2080 ft 228 kts 219°
2026-04-29 16:51 34.86641 136.74652 2261 ft 257 kts 217°
2026-04-29 16:51 34.85208 136.73264 2950 ft 264 kts 221°
2026-04-29 16:52 34.83762 136.71890 3756 ft 267 kts 205°
2026-04-29 16:52 34.81956 136.71459 4569 ft 269 kts 178°
2026-04-29 16:52 34.80096 136.71849 5272 ft 275 kts 169°
2026-04-29 16:52 34.78210 136.72306 6054 ft 278 kts 168°
2026-04-29 16:53 34.76461 136.73313 6745 ft 285 kts 141°
2026-04-29 16:53 34.75221 136.75199 7478 ft 290 kts 120°
2026-04-29 16:53 34.74245 136.77380 8126 ft 296 kts 121°
2026-04-29 16:53 34.73244 136.79567 8887 ft 297 kts 120°
2026-04-29 16:54 34.72231 136.81777 9596 ft 301 kts 121°
2026-04-29 16:54 34.71206 136.84014 10207 ft 308 kts 121°
2026-04-29 16:54 34.70118 136.86384 10264 ft 335 kts 121°
2026-04-29 16:54 34.68941 136.88948 10365 ft 357 kts 121°
2026-04-29 16:55 34.67816 136.91651 10968 ft 362 kts 110°
2026-04-29 16:55 34.67358 136.94686 11451 ft 370 kts 98°
2026-04-29 16:55 34.66996 136.97822 11921 ft 379 kts 99°
2026-04-29 16:55 34.66629 137.00968 12485 ft 385 kts 99°
2026-04-29 16:56 34.66253 137.04212 13046 ft 391 kts 99°
2026-04-29 16:56 34.65872 137.07507 13583 ft 397 kts 99°
2026-04-29 16:56 34.65482 137.10854 14104 ft 403 kts 100°
2026-04-29 16:56 34.65086 137.14245 14613 ft 408 kts 100°
2026-04-29 16:57 34.64684 137.17678 15101 ft 413 kts 99°
2026-04-29 16:57 34.64276 137.21155 15624 ft 418 kts 100°
2026-04-29 16:57 34.63863 137.24670 16086 ft 423 kts 99°
2026-04-29 16:57 34.63444 137.28224 16576 ft 428 kts 99°
2026-04-29 16:58 34.63019 137.31821 17033 ft 433 kts 99°
2026-04-29 16:58 34.62582 137.35453 17503 ft 437 kts 102°
2026-04-29 16:58 34.61707 137.38973 17921 ft 436 kts 116°
2026-04-29 16:58 34.60513 137.42380 18367 ft 440 kts 117°
2026-04-29 16:59 34.59257 137.45783 18774 ft 444 kts 118°
2026-04-29 16:59 34.57984 137.49219 19185 ft 448 kts 117°
2026-04-29 16:59 34.56734 137.52690 19599 ft 451 kts 117°
2026-04-29 16:59 34.55497 137.56144 19965 ft 454 kts 116°
2026-04-29 17:00 34.54557 137.59830 20348 ft 462 kts 102°
2026-04-29 17:00 34.54269 137.63731 20705 ft 467 kts 90°
2026-04-29 17:00 34.54266 137.67689 21040 ft 471 kts 90°
2026-04-29 17:00 34.54280 137.71679 21406 ft 474 kts 90°
2026-04-29 17:01 34.54303 137.75697 21771 ft 478 kts 90°
2026-04-29 17:01 34.54312 137.79735 22129 ft 481 kts 90°
2026-04-29 17:01 34.54312 137.83805 22505 ft 484 kts 90°
2026-04-29 17:01 34.54317 137.87893 22847 ft 487 kts 90°
2026-04-29 17:02 34.54325 137.92012 23187 ft 490 kts 90°
2026-04-29 17:02 34.54330 137.96156 23516 ft 493 kts 90°
2026-04-29 17:02 34.54329 138.00331 23772 ft 496 kts 90°
2026-04-29 17:02 34.54329 138.04523 24083 ft 498 kts 90°
2026-04-29 17:03 34.54325 138.08732 24351 ft 500 kts 90°
2026-04-29 17:03 34.54314 138.12966 24614 ft 503 kts 91°
2026-04-29 17:03 34.54303 138.17209 24884 ft 505 kts 90°
2026-04-29 17:03 34.54293 138.21474 25155 ft 507 kts 90°
2026-04-29 17:04 34.54281 138.25761 25416 ft 509 kts 91°
2026-04-29 17:04 34.54267 138.30070 25668 ft 512 kts 91°
2026-04-29 17:04 34.54276 138.34387 25919 ft 514 kts 86°
2026-04-29 17:04 34.54811 138.38667 26172 ft 514 kts 72°
2026-04-29 17:05 34.56005 138.42730 26423 ft 511 kts 60°
2026-04-29 17:05 34.57586 138.46597 26610 ft 513 kts 59°
2026-04-29 17:05 34.59194 138.50470 26909 ft 515 kts 59°
2026-04-29 17:05 34.60791 138.54300 27162 ft 517 kts 59°
2026-04-29 17:06 34.62406 138.58207 27424 ft 519 kts 59°
2026-04-29 17:06 34.64023 138.62144 27684 ft 522 kts 59°
2026-04-29 17:06 34.65649 138.66093 27970 ft 524 kts 59°
2026-04-29 17:06 34.67288 138.70061 28208 ft 527 kts 59°
2026-04-29 17:07 34.68929 138.74048 28483 ft 529 kts 59°
2026-04-29 17:07 34.69984 138.76722 28629 ft 534 kts 65°
2026-04-29 17:07 34.71320 138.82570 29074 ft 540 kts 81°
2026-04-29 17:07 34.71567 138.87138 29209 ft 544 kts 90°
2026-04-29 17:08 34.71549 138.91738 29573 ft 544 kts 91°
2026-04-29 17:08 34.71508 138.94789 29714 ft 546 kts 91°
2026-04-29 17:08 34.71462 138.99417 29959 ft 549 kts 91°
2026-04-29 17:08 34.71460 139.04061 30221 ft 551 kts 90°
2026-04-29 17:09 34.71456 139.08722 30452 ft 553 kts 91°
2026-04-29 17:09 34.71407 139.14944 30674 ft 557 kts 91°
2026-04-29 17:09 34.71370 139.19660 30925 ft 558 kts 91°
2026-04-29 17:09 34.71348 139.24386 31126 ft 561 kts 91°
2026-04-29 17:10 34.71299 139.32312 31123 ft 564 kts 91°
2026-04-29 17:10 34.72180 139.41648 31141 ft 554 kts 70°
2026-04-29 17:11 34.73567 139.45992 31152 ft 549 kts 59°
2026-04-29 17:11 34.75439 139.50017 31145 ft 548 kts 55°
2026-04-29 17:11 34.77377 139.54007 31400 ft 548 kts 54°
2026-04-29 17:11 34.79337 139.58005 31584 ft 551 kts 54°
2026-04-29 17:12 34.81296 139.62009 31864 ft 552 kts 54°
2026-04-29 17:12 34.83251 139.66040 32081 ft 554 kts 54°
2026-04-29 17:12 34.85210 139.70084 32306 ft 556 kts 54°
2026-04-29 17:12 34.86514 139.72768 32441 ft 557 kts 54°
2026-04-29 17:13 34.89164 139.78221 32691 ft 561 kts 54°
2026-04-29 17:13 34.91143 139.82308 33043 ft 560 kts 54°
2026-04-29 17:13 34.93120 139.86421 33309 ft 561 kts 56°
2026-04-29 17:13 34.94773 139.90780 33338 ft 573 kts 69°
2026-04-29 17:14 34.96739 140.00269 33698 ft 579 kts 76°
2026-04-29 17:14 34.97637 140.05005 33843 ft 582 kts 75°
2026-04-29 17:14 34.98577 140.09802 34047 ft 583 kts 75°
2026-04-29 17:15 34.99525 140.14612 34216 ft 584 kts 75°
2026-04-29 17:15 35.00456 140.19445 34383 ft 586 kts 75°
2026-04-29 17:15 35.01378 140.24289 34534 ft 588 kts 75°
2026-04-29 17:15 35.02311 140.29143 34718 ft 588 kts 75°
2026-04-29 17:16 35.03249 140.33998 34953 ft 587 kts 75°
2026-04-29 17:16 35.04180 140.38854 35207 ft 586 kts 75°
2026-04-29 17:16 35.05099 140.43694 35438 ft 586 kts 75°
2026-04-29 17:16 35.06022 140.48545 35643 ft 585 kts 75°
2026-04-29 17:17 35.06944 140.53384 35876 ft 584 kts 75°
2026-04-29 17:17 35.08016 140.58087 36091 ft 579 kts 64°
2026-04-29 17:17 35.09518 140.62635 36241 ft 578 kts 64°
2026-04-29 17:17 35.11047 140.67177 36447 ft 578 kts 63°
2026-04-29 17:18 35.12573 140.71713 36646 ft 577 kts 63°
2026-04-29 17:18 35.14083 140.76255 36846 ft 577 kts 64°
2026-04-29 17:18 35.15590 140.80801 37051 ft 576 kts 63°
2026-04-29 17:18 35.17101 140.85336 37118 ft 578 kts 63°
2026-04-29 17:19 35.20135 140.94464 37131 ft 578 kts 64°
2026-04-29 17:19 35.23141 141.03565 37124 ft 575 kts 63°
2026-04-29 17:20 35.26135 141.12627 37133 ft 575 kts 64°
2026-04-29 17:20 35.29129 141.21737 37133 ft 578 kts 64°
2026-04-29 17:21 35.32108 141.30818 37142 ft 579 kts 64°
2026-04-29 17:21 35.35095 141.39958 37142 ft 578 kts 64°
2026-04-29 17:22 35.38074 141.49098 37145 ft 577 kts 64°
2026-04-29 17:22 35.41041 141.58230 37141 ft 577 kts 64°
2026-04-29 17:23 35.44001 141.67367 37143 ft 576 kts 64°
2026-04-29 17:23 35.46954 141.76511 37140 ft 576 kts 64°
2026-04-29 17:24 35.49899 141.85658 37146 ft 578 kts 64°
2026-04-29 17:24 35.52854 141.94865 37150 ft 580 kts 64°
2026-04-29 17:25 35.55802 142.04082 37137 ft 578 kts 64°
2026-04-29 17:25 35.58733 142.13269 37144 ft 578 kts 64°
2026-04-29 17:26 35.61660 142.22474 37149 ft 579 kts 64°
2026-04-29 17:26 35.64565 142.31641 37144 ft 580 kts 64°
2026-04-29 17:27 35.67490 142.40897 37151 ft 581 kts 64°
2026-04-29 17:27 35.70407 142.50158 37151 ft 580 kts 64°
2026-04-29 17:28 35.73319 142.59429 37141 ft 582 kts 64°
2026-04-29 17:28 35.76231 142.68734 37149 ft 582 kts 64°
2026-04-29 17:29 35.79137 142.78050 37158 ft 583 kts 64°
2026-04-29 17:29 35.81552 142.85811 37147 ft 584 kts 64°
2026-04-29 17:30 35.84941 142.96742 37150 ft 584 kts 64°
2026-04-29 17:30 35.87816 143.06045 37152 ft 585 kts 64°
2026-04-29 17:31 35.90707 143.15432 37149 ft 585 kts 64°
2026-04-29 17:31 35.93181 143.25001 37169 ft 591 kts 79°
2026-04-29 17:32 35.94259 143.35090 37145 ft 594 kts 81°
2026-04-29 17:32 35.95291 143.45217 37152 ft 594 kts 80°
2026-04-29 17:33 35.96338 143.55355 37145 ft 596 kts 81°
2026-04-29 17:33 35.97360 143.65515 37145 ft 597 kts 81°
2026-04-29 17:34 35.98389 143.75693 37164 ft 597 kts 81°
2026-04-29 17:34 35.99398 143.85862 37135 ft 594 kts 81°
2026-04-29 17:35 36.00889 144.00958 37132 ft 593 kts 81°
2026-04-29 17:36 36.01874 144.11075 37124 ft 593 kts 81°
2026-04-29 17:36 36.02851 144.21192 37129 ft 593 kts 81°
2026-04-29 17:37 36.03820 144.31331 37132 ft 595 kts 81°
2026-04-29 17:37 36.04784 144.41497 37136 ft 596 kts 81°
2026-04-29 17:38 36.05739 144.51680 37149 ft 597 kts 81°
2026-04-29 17:38 36.06684 144.61830 37076 ft 598 kts 81°
2026-04-29 17:39 36.07619 144.71988 37125 ft 592 kts 81°
2026-04-29 17:39 36.08546 144.82117 37128 ft 595 kts 81°
2026-04-29 17:40 36.09465 144.92293 37135 ft 596 kts 81°
2026-04-29 17:40 36.10377 145.02474 37134 ft 597 kts 81°
2026-04-29 17:41 36.11284 145.12694 37127 ft 598 kts 82°
2026-04-29 17:41 36.12182 145.22916 37135 ft 598 kts 82°
2026-04-29 17:42 36.13072 145.33147 37130 ft 599 kts 82°
2026-04-29 17:42 36.13948 145.43326 37131 ft 599 kts 82°
2026-04-29 17:42 36.14597 145.48389 37157 ft 591 kts 71°
2026-04-29 17:43 36.15610 145.53307 37153 ft 590 kts 71°
2026-04-29 17:43 36.17699 145.63147 37128 ft 591 kts 71°
2026-04-29 17:44 36.19737 145.73014 37128 ft 592 kts 71°
2026-04-29 17:44 36.21798 145.82903 37130 ft 593 kts 71°
2026-04-29 17:45 36.23838 145.92809 37128 ft 594 kts 71°
2026-04-29 17:45 36.25878 146.02722 37131 ft 594 kts 71°
2026-04-29 17:46 36.27909 146.12649 37127 ft 595 kts 71°
2026-04-29 17:46 36.29932 146.22588 37128 ft 594 kts 71°
2026-04-29 17:47 36.31931 146.32445 37146 ft 593 kts 71°
2026-04-29 17:47 36.33936 146.42382 37126 ft 594 kts 71°
2026-04-29 17:48 36.35935 146.52332 37123 ft 594 kts 72°
2026-04-29 17:48 36.37925 146.62285 37123 ft 595 kts 72°
2026-04-29 17:49 36.39909 146.72250 37126 ft 595 kts 72°
2026-04-29 17:49 36.41886 146.82232 37120 ft 595 kts 72°
2026-04-29 17:50 36.43853 146.92210 37110 ft 595 kts 72°
2026-04-29 17:50 36.45813 147.02202 37109 ft 595 kts 72°
2026-04-29 17:51 36.47762 147.12179 37118 ft 594 kts 72°
2026-04-29 17:51 36.49691 147.22102 37114 ft 595 kts 72°
2026-04-29 17:52 36.51620 147.32081 37107 ft 593 kts 72°
2026-04-29 17:52 36.53541 147.42054 37097 ft 594 kts 72°
2026-04-29 17:53 36.55457 147.52053 37117 ft 595 kts 72°
2026-04-29 17:53 36.57366 147.62072 37109 ft 596 kts 72°
2026-04-29 17:54 36.59272 147.72114 37099 ft 597 kts 72°
2026-04-29 17:54 36.61172 147.82179 37102 ft 598 kts 72°
2026-04-29 17:55 36.63061 147.92241 37102 ft 596 kts 72°
2026-04-29 17:55 36.64940 148.02289 37102 ft 595 kts 72°
2026-04-29 17:56 36.66804 148.12313 37094 ft 594 kts 72°
2026-04-29 17:56 36.68660 148.22338 37097 ft 595 kts 72°
2026-04-29 17:57 36.70513 148.32402 37099 ft 597 kts 72°
2026-04-29 17:57 36.72362 148.42497 37096 ft 598 kts 72°
2026-04-29 17:58 36.74206 148.52609 37085 ft 599 kts 73°
2026-04-29 17:58 36.76032 148.62683 37085 ft 600 kts 73°
2026-04-29 17:59 36.77866 148.72848 37086 ft 600 kts 73°
2026-04-29 17:59 36.79690 148.83012 37080 ft 601 kts 73°
2026-04-29 18:00 36.81508 148.93194 37081 ft 601 kts 73°
2026-04-29 18:00 36.83320 149.03402 37083 ft 602 kts 73°
2026-04-29 18:01 36.84825 149.11915 37081 ft 605 kts 73°
2026-04-29 18:01 36.86920 149.23837 37081 ft 604 kts 73°
2026-04-29 18:02 36.88709 149.34070 37077 ft 602 kts 73°
2026-04-29 18:02 36.90484 149.44283 37067 ft 601 kts 73°
2026-04-29 18:03 36.91953 149.52774 37062 ft 602 kts 73°
2026-04-29 18:03 36.93717 149.63021 37075 ft 604 kts 73°
2026-04-29 18:04 36.95482 149.73331 37079 ft 607 kts 73°
2026-04-29 18:04 36.97239 149.83658 37075 ft 607 kts 73°
2026-04-29 18:05 36.98988 149.93982 37074 ft 608 kts 73°
2026-04-29 18:05 37.00202 150.04463 37079 ft 613 kts 85°
2026-04-29 18:06 37.00621 150.15122 37071 ft 614 kts 85°
2026-04-29 18:06 37.01062 150.25799 37071 ft 615 kts 85°
2026-04-29 18:07 37.01479 150.36483 37075 ft 615 kts 85°
2026-04-29 18:07 37.01889 150.47100 37039 ft 613 kts 85°
2026-04-29 18:08 37.02288 150.57715 37052 ft 610 kts 85°
2026-04-29 18:08 37.02677 150.68321 37056 ft 610 kts 85°
2026-04-29 18:09 37.03058 150.78925 37058 ft 611 kts 85°
2026-04-29 18:09 37.03429 150.89571 37060 ft 613 kts 85°
2026-04-29 18:10 37.03793 151.00238 37067 ft 614 kts 85°
2026-04-29 18:10 37.04148 151.10933 37064 ft 616 kts 86°
2026-04-29 18:11 37.04493 151.21646 37061 ft 616 kts 86°
2026-04-29 18:11 37.04826 151.32284 37060 ft 615 kts 86°
2026-04-29 18:12 37.05153 151.42993 37047 ft 614 kts 86°
2026-04-29 18:12 37.05467 151.53648 37045 ft 612 kts 86°
2026-04-29 18:13 37.05773 151.64298 37068 ft 612 kts 86°
2026-04-29 18:13 37.06070 151.74992 37056 ft 616 kts 86°
2026-04-29 18:14 37.06358 151.85724 37059 ft 617 kts 86°
2026-04-29 18:14 37.06637 151.96460 37050 ft 617 kts 86°
2026-04-29 18:15 37.06905 152.07192 37051 ft 617 kts 86°
2026-04-29 18:15 37.07165 152.17924 37053 ft 617 kts 86°
2026-04-29 18:16 37.07414 152.28662 37052 ft 617 kts 86°
2026-04-29 18:16 37.07653 152.39360 37040 ft 611 kts 86°
2026-04-29 18:17 37.07880 152.49921 37032 ft 610 kts 87°
2026-04-29 18:17 37.08099 152.60563 37048 ft 613 kts 87°
2026-04-29 18:18 37.08308 152.71238 37044 ft 614 kts 87°
2026-04-29 18:18 37.08509 152.81935 37045 ft 614 kts 87°
2026-04-29 18:19 37.08700 152.92641 37041 ft 614 kts 87°
2026-04-29 18:19 37.08882 153.03319 37047 ft 613 kts 87°
2026-04-29 18:20 37.09053 153.13983 37064 ft 612 kts 88°
2026-04-29 18:20 37.09215 153.24676 37025 ft 614 kts 88°
2026-04-29 18:21 37.09365 153.35232 37024 ft 606 kts 88°
2026-04-29 18:21 37.09508 153.45791 37041 ft 608 kts 88°
2026-04-29 18:22 37.09640 153.56421 37034 ft 611 kts 88°
2026-04-29 18:22 37.09764 153.67060 37033 ft 611 kts 88°
2026-04-29 18:23 37.09878 153.77714 37023 ft 612 kts 88°
2026-04-29 18:23 37.09983 153.88383 37023 ft 612 kts 88°
2026-04-29 18:24 37.10078 153.99048 37019 ft 612 kts 88°
2026-04-29 18:24 37.10164 154.09711 37021 ft 613 kts 89°
2026-04-29 18:25 37.10239 154.20317 37024 ft 613 kts 89°
2026-04-29 18:25 37.10306 154.30960 37007 ft 609 kts 89°
2026-04-29 18:26 37.10363 154.41561 37012 ft 608 kts 89°
2026-04-29 18:26 37.10410 154.52148 37008 ft 607 kts 89°
2026-04-29 18:27 37.10448 154.62728 37003 ft 607 kts 89°
2026-04-29 18:27 37.10476 154.73331 37010 ft 609 kts 89°
2026-04-29 18:28 37.10495 154.83964 37006 ft 610 kts 89°
2026-04-29 18:28 37.10505 154.94526 37010 ft 611 kts 90°
2026-04-29 18:29 37.10505 155.05172 37001 ft 611 kts 90°
2026-04-29 18:29 37.10495 155.15838 37005 ft 612 kts 90°
2026-04-29 18:30 37.10476 155.26468 36987 ft 606 kts 90°
2026-04-29 18:30 37.10449 155.36992 36983 ft 604 kts 90°
2026-04-29 18:31 37.10411 155.47524 36989 ft 605 kts 90°